Location: USNO
(38.9242°N, 77.0663°W)
Time: 18:04:57
(UTC-04:00)

N. Korean satellite - Pass Details

Date: 10 October 2017
Orbit: 459 x 517 km, 97.2° (Epoch: 18 October)

Event Time Altitude Azimuth Distance (km) Brightness Sun altitude
Rises 19:21:42 0° 173° (S) 2,570 10.2 -9.6°
Reaches altitude 10° 19:23:48 10° 177° (S) 1,682 9.3 -10.0°
Maximum altitude 19:27:24 65° 259° (W) 541 7.1 -10.7°
Drops below altitude 10° 19:30:57 10° 342° (NNW) 1,663 9.5 -11.4°
Sets 19:33:01 0° 346° (NNW) 2,537 10.4 -11.8°
